Weather History for Syracuse, NY

Change the Weather History Date:

Sunday, February 3, 2013

  Actual Average Record
Temperature  
Mean Temperature 14 °F 24 °F  
Max Temperature 27 °F 32 °F 54 °F (1991)
Min Temperature 1 °F 16 °F -14 °F (1961)
Degree Days  
Heating Degree Days 51 41  
Month to date heating degree days 142 123  
Since 1 July heating degree days 3409 3859  
Cooling Degree Days 0 0  
Month to date cooling degree days 0 0  
Year to date cooling degree days 0 0  
Moisture  
Dew Point 9 °F    
Average Humidity 72    
Maximum Humidity 88    
Minimum Humidity 55    
Precipitation  
Precipitation T in 0.07 in 0.55 in (1972)
Month to date precipitation 0.40 0.21  
Year to date precipitation 2.11 2.71  
Snow  
Snow 0.10 in 1.00 in 7.20 in (1970)
Month to date snowfall 12.0 3.0  
Since 1 July snowfall 58.8 79.6  
Snow Depth 7.00 in    
Sea Level Pressure  
Sea Level Pressure 29.88 in    
Wind  
Wind Speed 4 mph (ESE)    
Max Wind Speed 14 mph    
Max Gust Speed 18 mph    
Visibility 9 miles    
Events Snow    
T = Trace of Precipitation, MM = Missing Value Source: NWS Daily Summary

Daily Weather History Graph

Daily Weather History Graph

Search for Another Location

Airport:

Trip Planner

Search our weather history database for the weather conditions in past years. The results will help you decide how hot, cold, wet, or windy it might be!

Date:

Astronomy

Feb. 03, 2013 Rise Set
Actual Time 7:17 AM EST 5:19 PM EST
Civil Twilight 6:47 AM EST 5:49 PM EST
Nautical Twilight 6:13 AM EST 6:23 PM EST
Astronomical Twilight 5:40 AM EST 6:57 PM EST
Moon 12:42 AM EST (2/3) 10:54 AM EST (2/3)
Length of Visible Light 11h 02m
Length of Day
10h 02m
Waning Gibbous, 49% of the Moon is Illuminated
Feb 3
Waning Gibbous
Feb 10
New
Feb 17
First Quarter
Feb 25
Full
Mar 4
Last Quarter

Hourly Weather History & Observations

Time (EST) Temp. Windchill Dew Point Humidity Pressure Visibility Wind Dir Wind Speed Gust Speed Precip Events Conditions
12:54 AM 12.9 °F 6.9 °F 8.1 °F 81% 29.98 in 10.0 mi SSE 3.5 mph - N/A   Scattered Clouds
1:54 AM 12.0 °F 4.1 °F 7.0 °F 80% 29.98 in 10.0 mi SE 4.6 mph - N/A   Clear
2:54 AM 6.1 °F -2.8 °F 3.0 °F 87% 29.98 in 10.0 mi East 4.6 mph - N/A   Partly Cloudy
3:54 AM 3.0 °F -4.4 °F -0.9 °F 84% 29.96 in 10.0 mi ENE 3.5 mph - N/A   Partly Cloudy
4:54 AM 1.9 °F -5.6 °F -2.0 °F 83% 29.95 in 10.0 mi East 3.5 mph - N/A   Scattered Clouds
5:54 AM 1.9 °F -5.6 °F -2.0 °F 83% 29.94 in 10.0 mi East 3.5 mph - N/A   Partly Cloudy
6:54 AM 3.9 °F -8.2 °F -0.0 °F 84% 29.93 in 10.0 mi East 6.9 mph - N/A   Partly Cloudy
7:54 AM 3.9 °F -5.3 °F -0.0 °F 84% 29.93 in 10.0 mi East 4.6 mph - N/A   Partly Cloudy
8:54 AM 7.0 °F 0.1 °F 3.0 °F 84% 29.93 in 9.0 mi East 3.5 mph - N/A   Partly Cloudy
9:54 AM 12.0 °F 5.9 °F 8.1 °F 84% 29.92 in 10.0 mi East 3.5 mph - N/A   Mostly Cloudy
10:54 AM 18.0 °F - 10.9 °F 74% 29.90 in 10.0 mi Calm Calm - N/A   Overcast
11:54 AM 21.0 °F - 12.9 °F 71% 29.87 in 10.0 mi Calm Calm - N/A   Overcast
12:54 PM 24.1 °F - 14.0 °F 65% 29.83 in 10.0 mi Calm Calm - N/A   Overcast
1:54 PM 26.1 °F - 12.9 °F 58% 29.81 in 10.0 mi Calm Calm - N/A   Overcast
2:54 PM 26.1 °F 21.9 °F 12.0 °F 55% 29.79 in 10.0 mi ENE 3.5 mph - N/A   Overcast
3:54 PM 26.1 °F - 12.9 °F 58% 29.79 in 7.0 mi Calm Calm - 0.00 in Snow Light Snow
4:54 PM 25.0 °F 17.1 °F 16.0 °F 69% 29.79 in 10.0 mi WSW 6.9 mph - 0.00 in   Mostly Cloudy
5:54 PM 23.0 °F - 17.1 °F 78% 29.79 in 9.0 mi Calm Calm - 0.00 in Snow Light Snow
6:54 PM 21.9 °F - 16.0 °F 78% 29.80 in 10.0 mi Calm Calm - 0.00 in   Mostly Cloudy
7:54 PM 21.9 °F 15.7 °F 16.0 °F 78% 29.80 in 10.0 mi West 4.6 mph - N/A   Overcast
8:54 PM 21.0 °F 12.4 °F 12.9 °F 71% 29.81 in 6.0 mi West 6.9 mph - 0.00 in Snow Light Snow
9:54 PM 21.0 °F 11.4 °F 15.1 °F 78% 29.82 in 5.0 mi West 8.1 mph - 0.00 in Snow Light Snow
10:54 PM 21.0 °F 10.6 °F 15.1 °F 78% 29.82 in 9.0 mi WSW 9.2 mph - 0.00 in Snow Light Snow
11:54 PM 21.9 °F 11.0 °F 12.9 °F 68% 29.82 in 9.0 mi WSW 10.4 mph - 0.00 in Snow Light Snow